Regional Weather Roundup
Issued by NWS Goodland, KS

Home | Current Version | Previous Version | Graphics & Text | Print | Product List | Glossary On
Versions: 1 2 3 4 5 6 7 8 9 10 11 12 13 14 15 16 17 18 19 20 21 22 23 24 25 26 27 28 29 30 31 32 33 34 35 36 37 38 39 40 41 42 43 44 45 46 47 48 49 50
000
ASUS43 KGLD 250459
RWRGLD

GOODLAND FORECAST AREA HOURLY WEATHER ROUNDUP
NATIONAL WEATHER SERVICE GOODLAND KS
1000 PM MST FRI NOV 24 2017

...OFFICIAL OBSERVATIONS...

CITY           SKY/WX    TMP DP  RH WIND       PRES   REMARKS
GOODLAND KS    CLEAR     36  30  79 NE3       30.05R
HILL CITY KS   PTCLDY    47  35  63 N7        30.03R
IMPERIAL NEB   MOCLDY    35  28  75 NW6       30.07R
MCCOOK NEB     CLEAR     38  29  70 N12       30.05R
AKRON CO       CLEAR     39  23  52 E7        30.07R
BURLINGTON CO  CLEAR     43  32  65 NE6       30.06R
LIMON CO       CLEAR     33  29  85 W3        30.10R
$$

...UNOFFICIAL OBSERVATIONS...

CITY           SKY/WX    TMP DP  RH WIND       PRES   REMARKS
LENORA KS        N/A     46  32  58 N5          N/A
NORTON KS      CLEAR     37  27  65 N10       30.03
SHARON SPRINGS   N/A     47  37  68 CALM        N/A
KIT CARSON CO    N/A     41  32  69 CALM        N/A
YUMA CO        FAIR      32  27  80 NW3       30.07R
$$



USA.gov is the U.S. government's official web portal to all federal, state and local government web resources and services.